Theta_e
324 327 328 326 324 324 322 319 317 319 322 322 322 321 319 319 319 319 319 319 319 319 322 327 332 333 332 330 330 331 332 333
321 323 325 325 324 323 322 320 317 318 321 321 321 320 319 319 319 319 319 319 319 319 320 323 330 331 331 331 332 332 334 334
320 321 322 323 323 324 322 320 318 317 318 320 319 319 319 319 319 319 319 320 320 321 321 321 325 329 330 332 333 335 335 336
317 318 319 321 323 323 322 320 319 317 318 318 318 318 319 318 319 319 319 320 320 321 321 320 320 325 329 332 332 333 335 335
317 317 318 319 320 322 321 320 319 317 317 318 318 318 318 318 318 318 319 319 319 320 321 320 318 319 328 331 330 334 334 335
318 317 317 318 319 320 320 320 319 318 317 317 318 318 318 318 318 317 317 318 318 319 320 320 319 317 319 327 330 333 333 334
318 318 317 317 318 319 319 319 319 318 317 316 317 318 317 317 317 317 317 317 318 318 319 321 321 319 317 324 331 331 330 330
319 318 317 317 317 318 318 319 319 319 318 317 316 317 317 317 316 316 317 317 317 318 318 318 321 322 320 321 324 328 331 330
320 320 318 317 318 317 317 318 319 319 319 318 317 316 316 317 317 316 316 316 317 317 318 318 318 319 321 323 324 325 329 331
322 321 320 319 318 317 317 317 317 318 319 319 319 318 317 317 316 317 317 317 318 318 317 317 317 318 318 318 318 319 320 324
325 323 322 321 320 318 317 317 317 317 317 318 318 319 319 319 318 317 318 319 319 320 322 323 321 318 318 318 318 319 322 324
331 327 323 323 323 322 320 319 318 317 317 317 317 317 317 318 319 319 319 322 325 324 323 326 327 325 324 323 325 325 325 325
334 332 328 324 324 323 323 322 321 320 319 318 317 317 317 317 317 317 318 319 320 323 326 326 327 328 330 329 327 327 326 325
337 335 334 329 324 322 323 323 323 323 323 323 322 321 319 318 317 317 317 318 319 320 326 328 327 329 331 332 332 328 325 323
338 338 338 336 330 325 324 325 325 325 324 324 324 326 324 324 325 324 322 322 322 321 322 327 330 330 331 334 334 333 326 325
336 338 339 339 338 332 326 323 322 321 321 322 323 325 327 326 327 329 330 330 328 326 325 325 329 330 331 332 334 333 332 328
331 336 338 339 340 339 334 328 323 321 321 321 322 322 324 325 326 327 329 330 330 331 331 331 330 330 329 330 331 332 333 334
329 333 334 339 339 339 339 336 329 324 323 322 322 322 323 324 325 327 328 329 329 331 333 333 333 334 334 332 331 330 330 330
325 334 336 339 340 339 339 338 335 327 323 323 323 323 324 325 325 326 326 327 328 329 331 333 334 335 335 335 335 334 333 331
325 334 337 339 340 340 339 338 337 335 330 327 325 325 326 326 326 326 326 327 327 329 332 333 334 336 336 337 337 337 337 336
Wind_Speed
32 32 30 28 27 25 24 23 23 23 23 21 20 19 19 19 19 19 19 19 19 19 19 18 18 15 12 10 10 9 7 6
32 32 31 30 28 26 24 23 23 23 23 22 20 19 18 19 18 18 18 18 18 18 18 18 17 15 12 10 7 4 2 1
34 33 32 31 29 28 25 24 23 23 23 22 22 20 19 19 18 18 18 18 18 17 17 17 16 16 14 13 9 7 2 2
36 35 34 33 31 30 28 27 26 25 25 25 23 22 20 20 19 18 18 18 18 18 17 17 17 18 17 15 12 7 5 3
38 36 35 35 34 33 31 30 28 27 26 25 24 23 22 22 21 21 20 20 19 19 18 18 18 19 20 18 15 11 8 7
39 38 37 36 35 34 33 32 31 29 28 27 26 25 24 23 22 21 21 20 20 19 17 18 18 19 21 22 20 17 14 12
41 40 38 37 37 35 34 33 31 29 28 28 27 26 25 24 23 23 21 21 20 19 18 17 18 19 21 23 24 20 19 16
43 42 40 39 38 37 35 33 31 30 29 28 28 27 25 25 24 23 22 21 19 19 18 18 17 18 20 22 23 21 20 20
45 44 42 41 39 38 37 35 33 32 31 30 29 28 27 26 24 24 23 21 20 20 20 20 21 21 22 23 24 23 23 22
45 45 45 43 42 40 39 37 36 34 33 32 31 30 28 28 27 26 24 23 22 23 22 23 24 24 24 24 25 25 25 25
46 46 47 46 44 42 41 39 38 37 35 34 33 32 31 31 29 28 26 26 26 25 24 24 25 26 26 25 26 26 26 26
45 46 47 48 46 44 43 42 41 40 39 38 36 35 34 33 33 31 29 29 28 28 29 27 26 24 24 26 25 25 27 29
48 48 49 48 51 51 49 49 46 44 42 40 39 38 37 36 36 35 34 33 32 30 29 30 30 29 26 29 30 29 30 31
50 50 51 50 51 52 52 50 48 45 43 41 41 41 39 39 39 38 37 37 36 36 34 34 34 32 31 31 32 33 33 31
55 53 53 53 50 52 53 52 49 48 46 45 43 40 40 39 38 39 38 37 38 38 37 37 37 36 35 30 11 16 22 23
59 58 57 57 55 55 54 54 54 52 50 47 45 43 40 40 39 39 38 37 38 39 39 39 38 40 40 39 39 40 24 25
60 63 63 61 61 59 57 55 50 48 51 49 47 44 43 42 41 40 39 39 39 39 41 41 42 42 44 44 43 42 44 47
60 65 67 68 66 63 62 58 55 54 51 51 47 45 44 44 42 42 42 42 41 41 41 42 42 43 44 47 49 45 45 46
50 62 67 70 71 68 67 63 60 56 52 51 49 48 47 44 43 43 44 43 43 43 43 43 44 45 45 46 48 50 50 50
43 57 62 64 67 72 71 68 65 61 56 53 50 47 43 42 43 44 43 42 42 44 45 44 43 45 45 47 48 49 50 50
Wind_Direction
172 174 177 177 176 173 171 168 167 168 171 173 168 166 163 160 158 157 156 155 157 160 162 158 157 152 148 140 128 116 96 85
175 176 179 179 178 177 176 173 171 171 174 176 175 173 171 168 166 165 164 163 163 166 168 169 169 166 165 162 149 136 76 35
180 180 182 182 182 180 180 179 177 176 178 180 180 179 177 176 174 173 172 171 172 174 176 178 180 179 179 178 178 176 217 292
186 185 185 184 185 185 184 183 184 183 184 185 184 183 183 182 182 182 182 181 181 182 184 186 189 190 189 191 194 204 221 245
190 189 189 188 189 189 189 189 189 189 190 191 188 188 188 189 189 189 189 189 189 190 191 192 193 195 196 200 210 216 233 238
193 194 193 193 194 195 195 194 194 194 193 194 195 194 194 195 196 197 197 197 197 197 196 196 198 200 202 205 211 219 233 238
197 197 198 198 198 199 200 200 200 199 199 198 201 202 202 200 201 203 204 205 205 205 205 205 206 206 207 210 214 228 242 249
200 201 202 203 204 204 205 205 204 204 205 206 207 208 210 210 209 209 210 212 213 215 216 218 217 217 217 218 222 232 247 256
205 204 204 207 208 209 210 210 209 209 209 211 213 213 214 217 218 218 217 218 220 223 225 227 228 228 231 232 238 245 250 257
209 208 209 209 211 212 213 214 215 214 215 215 217 218 219 221 223 225 225 224 227 230 231 234 237 238 242 244 248 253 257 260
213 212 214 213 213 215 217 218 219 220 219 220 222 224 224 226 227 228 229 230 232 235 237 240 244 247 250 254 254 255 258 261
223 219 217 217 218 217 219 221 222 224 224 224 224 226 230 230 232 233 233 234 236 237 241 243 250 255 257 260 261 260 260 260
228 224 223 218 219 220 220 221 221 224 225 227 228 229 230 232 236 237 236 237 240 243 245 247 249 252 259 260 262 263 263 264
231 230 227 223 221 224 224 224 225 227 227 228 230 230 231 234 235 238 238 239 240 241 242 248 251 252 252 261 273 274 270 272
237 234 230 228 225 222 225 227 229 228 230 229 230 229 229 231 234 237 239 241 244 246 246 247 252 255 254 249 254 254 284 288
242 240 234 232 226 223 222 224 224 228 228 229 229 230 229 231 234 236 242 243 245 249 252 252 253 256 259 255 252 257 270 287
242 242 239 234 231 227 226 224 228 232 228 228 230 232 233 233 233 237 240 243 246 249 254 253 255 256 258 260 260 261 263 261
241 239 240 236 233 230 229 229 229 227 229 229 229 230 232 235 238 239 242 245 249 252 254 258 260 261 260 262 261 259 262 263
234 234 236 235 233 233 231 231 231 230 231 232 228 229 232 236 241 244 247 251 252 254 257 259 261 262 264 264 266 265 266 265
231 227 233 231 234 235 234 234 231 232 233 235 236 236 238 242 245 249 253 256 260 261 261 263 264 265 266 267 266 269 269 268